Theta_e
318 318 318 319 319 319 318 318 318 318 318 317 316 315 315 315 314 314 314 314 313 311 310 308 310 316 317 316 316 314 311 312 315 317 322 321 317 322 324 326 328 326 326 334 339 341 345 345 349 354 356 360 368 371 366 366 369 376 382 374 362 363 368 363 367 370 363 362 366 366 363 364 364 362 359 353 348 346 347 344 343 344 344 345 347 349 348 348
317 317 318 317 317 317 317 317 317 318 317 316 315 315 314 314 313 313 313 313 313 311 310 309 311 317 316 315 315 311 311 318 325 327 324 317 321 324 325 325 326 326 325 332 339 340 342 342 347 354 356 362 366 363 366 369 369 376 377 372 366 368 370 363 365 366 363 364 366 368 362 365 369 358 359 357 347 347 348 344 345 346 345 347 347 348 348 347
316 316 316 317 317 316 316 316 317 317 316 315 314 314 313 313 315 317 318 317 314 311 310 309 312 316 316 315 313 310 317 326 337 340 325 317 326 326 328 326 322 324 325 329 336 339 342 343 348 354 352 358 363 359 364 369 368 371 372 372 370 367 364 361 363 363 363 366 368 373 365 365 369 355 358 360 349 349 350 347 347 347 347 348 347 347 347 347
314 314 314 316 316 315 315 315 315 315 314 314 313 313 313 316 320 320 321 321 317 312 309 310 313 316 315 313 312 314 321 332 339 337 326 320 325 328 330 327 321 321 322 327 333 338 339 341 349 353 349 355 361 360 367 369 365 369 371 374 369 362 365 364 361 362 361 361 368 374 367 369 368 357 360 358 354 356 351 347 347 346 346 347 347 347 348 347
312 313 314 315 315 314 314 314 314 314 313 313 313 313 315 319 322 319 318 320 317 312 309 311 313 314 313 312 316 319 325 335 333 332 331 324 323 326 329 325 321 319 319 325 329 334 335 337 348 351 349 357 362 365 373 370 364 370 369 370 365 357 370 369 360 362 360 360 369 374 371 367 362 362 365 360 358 357 349 346 345 344 344 345 347 347 348 348
310 310 312 313 314 313 313 314 313 314 313 312 312 313 316 320 321 318 316 316 314 311 310 312 313 313 311 312 319 322 329 335 330 330 329 326 324 325 328 325 319 318 318 323 327 332 334 334 342 346 349 356 361 368 373 366 367 376 369 366 367 362 371 367 359 363 360 364 376 377 370 363 368 371 365 364 364 356 347 345 344 343 343 344 345 346 347 347
308 308 309 310 311 312 313 314 314 314 313 312 311 312 315 320 321 318 314 313 312 310 312 312 312 312 311 316 323 325 330 332 323 326 326 324 327 326 325 322 318 317 318 325 329 332 334 335 337 339 347 355 357 362 368 365 368 380 374 368 370 367 371 366 361 363 360 370 376 371 370 368 375 369 358 367 366 353 346 343 343 343 343 343 344 344 345 346
307 307 307 308 309 310 311 313 314 314 314 313 311 310 313 318 321 319 315 312 311 311 312 313 314 314 315 321 328 329 331 330 321 323 324 320 324 323 320 320 320 319 320 327 331 333 334 336 336 337 348 356 357 358 363 366 366 373 375 370 369 368 369 364 361 362 362 370 366 369 378 372 374 366 359 373 363 349 345 342 343 343 343 344 344 345 345 345
307 307 307 307 307 308 309 310 312 314 314 314 313 311 311 314 319 321 318 313 311 313 313 315 317 317 319 324 328 328 329 329 325 323 320 318 319 320 320 322 322 320 322 328 331 333 335 336 335 339 351 353 355 358 360 369 368 369 373 371 371 370 369 364 363 365 366 367 366 376 380 372 376 366 362 373 358 347 344 342 344 343 343 344 344 345 345 347
306 307 306 307 307 307 307 308 310 312 314 314 314 312 311 313 317 321 320 314 312 314 316 317 319 320 323 329 332 329 329 328 326 325 319 317 319 321 322 322 324 322 324 329 330 332 335 335 332 334 348 352 355 359 359 367 369 369 370 367 369 370 367 365 366 366 365 368 370 378 375 372 376 364 366 371 353 346 345 343 345 343 345 345 345 346 345 347
306 306 306 307 307 307 307 307 308 309 311 313 315 314 312 312 315 320 320 316 312 314 318 318 320 321 323 332 336 330 330 330 328 327 321 317 318 320 320 321 324 323 325 331 331 332 333 331 330 331 343 350 353 356 356 358 363 368 367 367 368 368 366 364 366 367 367 369 371 375 372 370 370 365 374 368 351 349 345 344 345 344 346 346 345 346 346 346
306 306 306 306 306 307 307 307 307 308 309 311 314 314 313 312 315 319 320 316 313 316 319 319 321 324 326 334 337 328 327 331 330 328 324 321 321 321 321 322 327 329 330 333 331 331 330 326 328 331 338 348 352 355 355 355 362 365 366 372 372 369 372 368 367 369 369 370 373 372 365 365 367 368 375 366 355 352 345 345 346 345 347 346 346 346 347 346
305 305 305 306 306 306 307 307 307 307 308 309 312 314 313 313 314 318 320 316 314 316 318 319 322 325 330 339 336 323 325 330 329 328 326 327 329 327 326 325 330 332 331 332 331 329 328 325 328 330 332 343 350 355 357 357 361 365 367 376 377 370 377 377 368 371 369 369 375 366 357 366 372 368 371 368 362 354 349 349 346 346 348 346 347 347 347 345
305 305 305 305 305 305 306 306 307 307 308 309 311 313 313 313 314 317 321 318 316 318 318 319 321 326 336 341 331 325 329 330 328 327 328 329 331 331 330 329 329 329 329 330 330 328 328 326 327 329 330 337 345 350 357 358 361 370 365 368 375 366 373 378 369 373 372 368 374 363 357 370 374 366 368 368 363 353 350 351 347 347 348 347 348 347 346 346
305 305 305 305 305 305 305 306 307 307 307 308 310 312 312 313 314 317 321 320 318 318 319 322 322 328 342 341 328 327 332 331 328 328 329 329 330 330 331 331 330 329 329 329 329 328 327 326 325 329 330 332 343 350 357 358 361 370 360 355 363 359 366 376 369 373 373 369 371 363 361 373 373 367 369 369 366 355 350 352 348 346 347 347 348 346 346 346
305 305 305 305 305 305 305 305 306 307 307 308 309 311 312 314 314 317 322 321 319 319 321 327 326 329 343 340 330 330 331 331 329 328 330 330 330 330 331 331 330 329 329 329 328 327 326 325 326 329 330 330 336 344 352 351 351 360 356 349 353 353 360 370 369 372 373 371 370 365 367 375 373 368 369 368 364 355 352 354 351 348 347 347 347 346 346 346
305 305 305 305 305 305 305 305 306 306 308 308 309 312 313 314 315 319 324 321 319 320 321 326 327 328 337 334 329 331 330 330 329 329 329 329 329 329 330 328 328 329 328 328 327 326 325 325 327 328 330 330 330 337 344 341 341 348 350 347 350 354 356 362 369 372 371 370 369 368 371 377 374 369 368 366 361 352 352 356 354 351 349 347 347 346 346 347
305 306 306 306 306 306 306 305 305 306 308 308 310 312 314 317 319 323 327 322 321 325 325 326 326 326 329 331 330 331 330 330 330 329 328 328 328 328 328 326 326 327 325 325 326 325 324 325 328 328 329 330 329 332 333 334 338 341 344 343 345 351 354 359 367 370 371 370 369 367 369 375 373 367 364 363 362 354 352 357 351 349 350 347 347 347 346 347
305 306 306 306 306 307 306 306 306 306 308 310 311 313 319 325 328 329 327 324 328 334 333 332 329 325 327 331 330 328 329 330 329 327 326 327 327 327 327 325 325 325 324 324 325 324 324 325 326 326 327 328 329 329 329 333 338 342 348 346 347 354 355 362 370 369 369 370 371 370 368 372 371 367 363 362 364 358 355 358 351 352 354 347 346 347 346 347
306 306 306 307 307 307 307 306 306 306 307 311 312 315 323 329 331 334 331 330 334 332 327 331 332 328 327 327 326 326 327 328 327 325 325 327 326 326 325 324 325 325 324 324 325 325 325 324 324 325 327 328 328 328 329 331 332 341 350 347 351 356 354 362 373 369 367 367 369 371 369 370 370 365 361 361 365 363 360 360 358 360 358 348 347 347 346 348
306 306 307 307 307 308 308 307 306 307 310 313 315 320 324 323 325 328 328 331 332 329 327 329 330 329 327 325 326 326 324 325 324 323 325 326 324 324 324 324 325 325 326 324 323 325 325 323 323 326 328 328 329 328 328 328 329 340 346 344 347 353 356 364 371 368 367 365 365 370 369 368 368 363 361 361 363 364 362 361 361 363 361 354 350 347 348 347
306 307 307 307 308 307 308 308 306 309 315 315 317 322 323 321 322 322 320 322 325 328 330 329 328 328 327 326 327 327 326 324 322 322 324 324 323 324 324 324 325 326 326 323 322 323 323 323 324 325 326 326 327 327 326 327 332 337 337 335 335 343 354 357 365 371 365 361 365 368 367 367 367 361 359 361 362 364 362 362 366 364 361 359 353 348 348 348
307 307 307 308 308 308 309 308 308 314 316 313 316 320 320 319 321 322 320 321 321 323 327 328 327 327 327 326 327 328 327 324 322 323 323 323 324 324 325 324 324 325 324 323 323 320 319 322 325 325 325 326 327 327 327 325 331 339 334 325 324 341 352 344 356 373 365 361 367 367 365 372 371 362 362 366 368 373 367 365 370 367 362 362 358 352 348 347
308 307 308 308 308 310 309 308 313 316 312 311 315 319 319 320 322 322 321 322 323 321 322 323 323 324 325 325 326 328 327 324 324 323 322 323 324 323 324 324 323 323 323 324 324 322 320 323 324 324 326 328 327 327 327 324 328 340 340 327 327 346 354 346 356 369 363 356 364 366 359 366 372 364 366 369 369 373 369 365 367 366 363 361 358 357 353 348
308 308 308 308 309 310 308 314 319 314 310 313 317 317 317 321 324 322 322 325 325 324 323 321 322 322 323 324 326 327 326 325 324 323 323 323 323 323 323 323 323 323 324 323 323 323 323 323 323 323 325 326 325 324 326 324 322 327 334 331 331 339 346 351 360 361 352 346 359 361 345 351 372 371 369 369 367 368 367 366 366 366 366 362 357 358 357 350
307 308 308 308 309 308 310 320 318 310 313 317 316 317 318 322 325 322 325 327 324 325 326 324 323 323 323 324 326 325 324 325 325 323 322 322 322 324 323 324 325 324 325 324 323 323 323 323 323 322 323 324 324 323 324 326 319 316 326 330 328 328 333 347 355 349 342 344 358 359 342 344 360 365 369 372 369 368 367 367 367 368 368 364 359 358 358 351
307 308 308 308 309 309 314 318 313 313 319 317 316 319 320 323 324 322 326 326 325 328 326 323 323 324 324 324 324 325 323 324 324 322 323 323 322 323 324 326 326 324 325 323 319 321 325 324 323 323 323 323 322 321 324 327 318 317 332 330 324 326 333 348 353 343 344 348 351 356 351 349 351 358 369 373 371 369 369 369 367 368 366 361 358 357 359 354
308 308 308 309 309 309 313 315 315 317 317 313 318 321 322 323 323 325 327 322 328 329 324 323 324 323 323 324 324 325 324 324 324 323 322 323 322 323 323 325 325 324 326 321 315 320 326 324 323 324 323 321 323 324 326 326 318 323 334 325 323 330 339 351 349 340 346 342 335 346 348 342 348 362 367 368 370 369 370 370 368 368 363 357 355 354 357 358
309 309 309 309 309 311 314 315 315 316 312 314 318 319 321 322 324 331 327 321 326 326 325 324 322 323 324 323 324 325 325 324 325 324 323 322 323 323 323 324 324 323 324 321 319 321 323 324 326 325 322 322 325 327 325 324 322 324 326 324 332 339 341 349 347 343 344 333 328 339 341 334 342 360 362 360 365 367 369 367 363 365 361 355 353 353 358 360
309 310 309 309 310 312 313 313 314 315 316 316 316 316 320 325 331 328 319 319 325 325 325 324 323 324 323 323 324 324 324 324 325 324 322 322 322 322 324 324 323 323 324 323 322 323 321 325 329 325 325 325 324 325 323 322 323 324 324 328 339 348 353 362 366 355 338 331 336 344 343 337 339 354 362 362 367 369 368 366 362 361 360 356 355 355 357 358
310 310 310 310 311 311 312 314 314 317 320 315 313 318 322 330 333 323 317 321 322 323 324 323 325 325 323 324 325 324 324 324 324 322 322 324 323 321 322 323 322 322 322 322 321 324 324 323 326 326 327 326 322 324 325 325 324 325 332 338 340 345 350 352 356 349 331 329 343 348 342 336 336 350 364 366 368 367 366 368 365 361 358 357 358 358 357 356
310 311 311 311 312 312 313 316 313 315 316 314 316 323 328 327 323 319 323 321 317 323 326 324 325 325 323 325 325 325 325 324 324 324 324 324 323 323 322 324 324 318 316 319 319 321 323 323 324 324 326 326 322 322 324 327 328 325 333 340 338 337 338 338 338 338 332 332 339 342 339 336 339 354 367 366 363 365 366 365 362 360 357 356 358 360 359 356
311 312 313 314 313 313 313 313 314 315 316 318 322 329 331 325 320 320 321 317 317 324 325 324 326 325 323 325 325 325 324 324 325 324 323 324 324 323 320 324 326 318 317 319 315 314 318 322 323 321 323 326 322 321 318 321 326 321 323 330 334 336 335 335 336 335 334 335 336 340 341 337 340 353 363 366 365 367 367 361 358 358 355 355 357 360 361 355
311 312 314 315 314 314 314 314 317 319 319 322 327 329 325 320 323 324 319 317 319 321 321 322 325 325 324 324 324 324 323 323 325 324 324 324 321 322 321 321 323 322 321 318 314 313 312 316 323 322 322 324 322 324 322 323 326 323 326 332 332 337 338 336 339 337 334 334 335 336 337 335 339 351 361 363 362 364 363 359 359 357 355 357 357 359 361 354
312 314 315 316 316 318 320 320 321 322 321 325 330 328 320 317 322 323 320 321 321 321 322 323 324 324 323 324 324 324 323 322 323 324 324 323 321 322 323 321 321 323 320 316 317 317 310 313 324 323 323 324 322 324 324 326 328 330 336 332 326 337 344 337 337 337 332 332 333 332 335 343 351 358 361 359 361 363 361 359 360 359 357 360 360 360 362 357
313 315 317 319 320 322 325 323 320 322 325 328 327 323 320 319 323 323 324 325 321 322 324 323 324 321 318 322 324 324 325 323 324 324 321 323 322 322 324 323 321 321 320 320 320 317 311 316 325 322 322 325 323 323 324 326 330 335 332 328 331 341 343 332 329 337 334 329 331 334 338 345 349 353 356 356 359 361 360 359 359 359 360 360 360 360 360 359
314 318 320 321 322 325 326 322 319 323 329 331 328 325 323 321 322 322 324 325 322 324 324 320 322 320 315 317 321 323 325 323 322 321 319 321 321 322 324 324 322 322 321 321 321 320 315 315 325 324 319 323 323 322 327 331 336 336 326 330 339 336 338 334 326 334 335 326 329 336 338 339 337 345 355 356 358 360 360 359 357 359 360 359 359 358 358 359
316 319 322 325 326 326 324 320 321 327 332 332 335 337 331 325 324 322 323 324 324 325 323 319 322 322 318 315 318 324 323 319 320 321 319 319 321 323 323 323 323 324 322 321 322 324 319 313 323 329 319 322 326 322 323 327 332 336 330 338 340 328 332 331 323 328 331 326 331 334 335 338 337 342 349 351 359 362 361 360 357 357 358 357 358 357 357 359
317 323 329 329 329 326 322 322 325 330 333 332 335 336 329 325 325 324 324 324 323 323 323 322 322 323 322 319 320 323 322 319 319 320 317 318 321 324 324 324 324 323 323 323 322 325 325 316 318 329 323 323 327 324 320 321 327 332 329 333 338 334 335 330 324 327 326 327 335 332 331 340 349 353 351 351 361 363 360 362 361 359 360 361 360 358 357 359
318 326 330 329 329 326 323 324 327 331 334 335 334 329 324 323 323 322 324 324 323 324 325 325 323 323 324 323 322 323 323 322 321 321 319 319 320 321 323 323 323 325 323 322 323 326 326 319 315 324 326 322 321 323 325 324 324 324 322 322 323 327 330 327 325 325 322 328 336 335 336 345 362 368 358 354 359 360 362 366 367 365 364 366 368 367 365 362
320 328 332 329 327 326 325 326 329 332 335 335 331 326 323 323 323 323 324 323 323 324 324 324 325 324 324 323 323 323 323 323 323 323 321 320 319 319 323 324 323 324 322 321 323 322 322 323 319 320 319 316 321 327 329 330 329 326 325 324 322 324 324 322 324 325 323 327 331 335 337 345 362 366 361 364 364 362 366 369 369 368 364 367 369 370 370 366
320 323 328 326 323 324 326 330 332 332 331 330 327 324 324 325 325 323 323 323 323 324 324 324 325 325 325 324 324 324 323 323 324 324 323 322 321 321 324 324 323 324 325 324 322 325 332 330 320 318 324 324 325 328 325 325 330 330 327 330 331 329 325 319 320 324 323 323 329 338 338 346 364 366 365 374 373 365 365 366 370 368 364 365 364 363 364 363
315 315 321 320 320 321 325 333 334 331 328 327 325 324 323 324 324 323 324 324 324 324 323 325 325 324 325 325 324 324 322 321 323 324 324 324 323 324 324 324 323 325 325 322 322 330 335 326 316 321 341 349 335 331 332 330 329 328 326 332 332 327 330 328 328 333 328 320 326 341 343 351 368 368 363 369 369 364 361 363 370 370 363 362 362 364 365 364
314 314 320 323 323 322 326 332 334 331 329 325 324 324 324 324 324 325 325 324 325 325 324 325 325 323 324 324 323 324 322 320 322 323 324 324 324 325 324 323 323 324 325 328 331 328 324 326 324 318 323 332 328 323 330 333 330 328 329 333 331 329 333 329 329 339 332 319 327 344 345 351 363 365 362 364 365 363 359 357 361 366 367 365 364 365 364 363
317 319 322 324 324 324 328 330 328 328 327 324 324 325 323 324 324 325 326 325 325 325 324 325 324 323 324 323 322 324 322 321 321 322 324 324 323 325 323 325 325 322 330 346 348 334 326 333 341 326 316 321 325 323 326 330 328 329 332 332 329 329 329 324 326 331 327 323 333 342 341 346 357 361 362 364 363 362 360 356 355 359 364 367 369 369 367 367
322 328 329 326 325 325 326 327 325 326 327 326 327 325 322 324 324 324 327 326 325 325 324 325 324 322 323 322 322 323 323 322 321 323 326 323 322 324 324 325 324 328 350 363 349 341 340 339 355 357 335 330 343 350 348 339 326 323 327 329 329 331 334 334 328 326 328 331 334 339 342 340 345 357 362 361 362 363 362 359 359 360 361 366 371 372 372 372
324 331 330 327 329 329 328 328 326 326 328 327 327 325 323 325 326 327 327 324 324 325 324 325 324 323 323 323 322 323 324 325 324 322 323 324 323 323 325 325 327 340 360 355 335 339 341 326 339 361 341 333 355 364 348 335 328 323 325 328 330 330 332 332 324 325 335 329 326 342 351 339 339 354 358 356 359 362 362 362 362 363 363 365 366 367 368 370
326 329 326 324 329 332 331 330 328 327 327 326 326 325 324 325 328 329 329 327 326 325 324 326 325 323 324 322 321 323 326 327 329 327 326 326 325 325 327 325 326 338 345 333 330 345 339 321 326 336 330 330 343 341 333 332 332 330 328 328 331 331 327 326 327 333 340 329 327 347 354 341 344 353 350 351 357 358 359 361 360 361 361 362 363 366 367 367
325 326 324 322 325 327 326 327 327 327 327 327 329 329 324 324 326 326 328 329 329 326 323 325 326 324 325 323 322 325 327 323 325 331 332 331 330 329 330 329 329 335 334 326 332 336 328 330 338 327 320 328 329 325 331 334 328 328 329 329 333 333 329 328 329 335 342 341 345 355 352 348 357 357 349 349 354 357 360 361 361 362 362 362 364 366 366 367
321 322 322 323 323 324 324 325 325 325 325 325 329 327 323 324 324 324 326 327 328 329 324 324 327 326 325 327 326 328 331 329 329 332 334 334 334 333 332 332 332 333 333 329 332 331 322 331 346 331 319 326 331 327 329 332 329 327 327 329 330 328 327 328 329 335 341 344 351 354 347 346 354 355 354 354 356 362 364 362 364 364 363 365 365 364 366 370
315 317 319 322 325 326 325 324 322 324 326 326 326 326 325 326 326 325 326 325 324 326 325 324 327 330 331 335 334 331 333 336 335 333 332 333 334 332 332 334 332 332 335 331 332 337 330 329 339 329 315 319 331 327 323 329 330 323 322 328 328 324 328 331 332 338 341 340 343 344 339 342 348 351 353 357 361 364 364 363 365 364 365 366 365 366 370 371
313 315 316 320 327 328 325 324 323 324 328 328 326 326 326 326 326 326 328 328 324 322 324 324 327 333 337 336 334 331 331 333 333 331 331 332 332 330 331 332 330 329 333 333 334 339 334 326 330 325 316 321 330 325 323 325 321 319 327 335 332 330 334 335 334 340 342 339 340 341 340 345 350 352 353 357 360 363 364 363 363 364 367 365 364 368 370 369
Wind_Speed
18 18 18 19 19 20 21 22 22 23 23 23 22 21 19 17 16 14 13 12 11 9 10 10 8 8 7 7 7 8 9 7 4 5 6 6 10 11 6 8 12 14 14 13 12 11 8 6 7 6 6 2 1 0 0 2 1 2 2 3 4 3 3 3 4 4 2 3 4 5 4 4 4 4 2 2 5 10 11 7 7 7 9 15 21 28 28 27
18 18 18 19 20 20 22 23 23 24 24 25 24 22 20 18 16 15 13 12 10 8 8 9 8 7 6 6 7 8 9 7 4 7 10 7 11 14 9 8 12 16 18 17 18 15 9 7 8 8 4 0 1 1 1 2 1 2 2 3 2 4 4 4 5 5 3 4 4 5 4 3 4 5 3 3 6 9 10 8 10 11 13 17 23 27 26 27
18 19 19 19 20 21 23 23 24 25 25 26 25 23 20 17 16 15 13 11 9 7 7 7 6 5 5 5 7 8 8 4 2 6 7 12 16 14 11 10 12 16 18 18 20 19 13 11 11 9 4 2 2 2 2 2 2 1 2 3 3 5 5 5 6 6 5 4 2 4 5 5 5 4 3 6 10 9 10 11 12 14 16 17 18 22 24 25
19 19 20 20 21 22 23 24 25 26 26 27 27 24 20 17 16 15 14 11 9 6 5 5 5 4 4 5 6 6 6 3 1 4 4 15 19 14 12 11 12 14 16 16 17 18 14 10 10 10 4 3 2 2 2 3 2 1 2 3 5 6 5 6 7 5 4 3 1 1 5 6 5 4 3 6 11 6 7 12 15 17 19 19 16 19 22 22
19 20 20 21 21 22 23 24 25 26 27 27 28 25 20 18 17 16 13 11 8 5 4 4 3 3 4 4 5 5 3 3 2 3 5 12 18 16 13 12 12 13 15 16 12 12 11 8 7 7 4 2 2 2 2 4 3 2 0 0 3 5 3 3 5 4 3 2 1 2 2 4 4 3 2 2 9 5 6 12 15 18 18 20 19 18 19 18
19 21 21 21 22 22 23 24 25 26 27 27 28 26 21 19 18 17 13 10 8 5 4 3 3 3 3 3 3 4 1 1 3 3 6 10 14 15 14 12 12 12 15 16 10 6 7 6 6 6 4 2 3 4 2 3 3 2 1 1 1 2 1 3 4 4 4 2 2 0 2 3 4 1 3 2 5 6 10 14 15 16 17 21 21 19 18 16
20 21 21 22 22 23 23 24 25 26 27 27 27 26 23 20 19 18 13 10 7 5 4 4 4 4 3 2 2 3 3 3 5 4 6 9 12 13 14 13 13 13 14 13 8 4 3 4 6 5 4 3 4 4 2 2 2 3 3 2 2 1 1 4 4 6 6 4 4 0 3 3 3 2 2 2 1 5 13 15 15 15 16 18 17 16 17 17
21 21 21 21 22 23 24 24 25 25 26 26 27 26 23 20 19 17 13 9 6 5 4 4 4 4 4 2 1 4 1 5 6 7 7 9 12 13 14 14 13 14 15 13 9 5 2 4 8 6 5 3 4 4 3 3 2 2 3 3 3 2 2 2 2 4 5 4 1 3 3 2 3 3 4 3 3 3 14 15 15 15 14 15 13 14 15 14
21 21 21 21 22 23 23 24 25 25 25 26 26 26 24 21 18 16 13 9 5 4 3 4 4 4 4 2 2 3 3 4 3 7 9 12 14 15 14 13 15 16 13 14 13 6 3 4 6 6 6 4 5 6 6 5 2 4 4 5 4 3 4 3 2 3 3 2 2 3 1 4 4 2 4 3 4 3 15 16 15 16 14 13 11 12 13 10
21 21 21 21 22 22 23 23 24 24 25 25 25 25 25 21 17 15 14 9 5 3 3 4 4 4 5 3 4 2 3 4 7 8 9 13 15 15 15 13 16 18 11 12 13 7 6 6 5 3 5 4 6 7 6 4 3 4 6 6 4 3 3 4 4 4 3 2 2 3 3 4 3 1 3 1 5 2 13 16 14 15 13 13 10 11 11 11
22 22 22 22 22 22 22 23 24 24 25 25 24 24 25 22 16 14 13 10 4 2 3 3 3 4 3 3 4 2 5 6 9 9 10 14 16 15 16 14 15 18 14 9 10 11 13 12 8 2 3 3 6 6 6 4 4 7 8 4 3 3 1 3 4 4 2 2 4 5 2 2 2 1 4 1 3 3 12 15 14 13 11 11 10 10 9 10
24 23 23 23 23 23 23 23 23 24 25 25 24 23 24 23 17 13 11 9 4 2 2 2 3 3 2 3 4 7 7 9 9 10 12 12 12 12 12 13 14 15 15 9 10 13 13 13 9 3 2 5 6 3 5 4 6 6 7 4 3 4 2 4 4 4 4 2 6 6 2 2 2 4 4 1 3 2 11 12 12 12 10 10 10 9 7 9
24 24 24 24 24 24 24 24 24 24 25 25 24 23 23 22 17 12 10 7 3 1 1 1 2 1 2 1 7 8 6 10 10 12 13 9 8 8 8 11 13 13 15 13 14 17 17 16 9 2 1 5 4 3 4 4 6 4 2 3 2 4 4 6 4 4 4 3 6 6 1 3 6 7 4 1 3 5 11 7 8 11 9 9 9 8 7 9
24 24 25 25 25 25 25 25 25 25 25 25 25 23 23 21 16 11 9 6 3 1 0 0 1 0 2 4 9 8 7 10 12 16 15 13 12 10 10 11 12 14 17 19 21 19 17 16 9 3 2 4 4 4 7 5 3 3 1 1 2 2 3 4 4 6 4 2 3 4 1 4 7 9 4 3 3 9 12 6 6 10 9 8 8 8 8 9
24 24 25 25 26 26 26 26 26 26 25 26 25 23 22 21 15 10 8 5 2 1 1 1 0 1 2 7 10 6 6 6 16 22 16 16 16 11 14 17 17 16 16 18 19 18 16 13 7 2 3 1 4 5 6 3 0 2 2 1 1 2 2 3 2 7 6 1 2 4 1 4 7 8 5 5 6 10 11 4 5 10 9 9 8 8 8 8
25 25 25 25 26 26 27 27 27 27 27 27 26 23 22 20 13 9 7 3 1 0 1 2 1 2 1 5 7 4 5 8 18 22 17 17 16 12 15 18 18 18 18 17 15 16 14 8 3 3 2 1 4 5 4 2 1 2 3 3 2 3 2 1 2 7 7 2 2 3 2 2 5 6 5 6 8 10 8 3 4 7 8 11 8 7 9 8
26 26 26 26 26 26 27 28 28 29 28 28 26 24 22 18 10 6 4 1 1 2 2 0 1 1 2 5 6 5 7 11 15 17 17 17 15 15 14 9 10 14 16 15 12 10 6 2 2 2 1 1 3 4 3 3 4 3 2 3 3 5 4 2 2 5 6 4 5 5 3 4 6 4 6 6 9 11 9 4 4 4 5 10 9 8 8 8
27 27 27 27 27 26 27 28 29 30 29 27 26 25 20 11 5 3 1 4 3 1 0 2 1 1 3 5 3 4 6 11 14 14 17 17 16 17 13 5 5 8 7 6 6 4 1 1 1 1 3 1 2 5 4 6 5 4 5 4 3 4 5 5 3 5 8 6 6 6 5 8 7 4 5 5 7 11 9 6 8 6 5 8 9 9 9 8
27 27 28 28 28 27 28 29 29 30 30 27 25 21 12 4 2 2 4 4 2 1 2 2 3 2 3 5 5 7 8 12 14 12 14 16 15 15 11 6 4 5 3 0 3 4 3 2 2 1 3 4 4 5 7 9 7 8 9 5 4 4 3 5 3 6 11 7 5 8 7 8 7 6 6 5 5 8 8 6 9 7 5 9 10 8 9 9
27 28 28 29 29 28 28 29 29 30 30 26 21 14 5 4 4 1 1 2 4 5 6 5 6 4 6 7 6 8 9 9 10 10 14 15 11 8 5 3 1 2 3 3 3 3 4 3 4 4 6 8 9 9 11 11 8 8 7 4 5 6 3 3 3 6 11 7 6 10 7 6 6 6 7 6 5 5 6 7 7 7 6 8 9 8 10 9
28 28 28 29 29 29 29 29 30 29 25 19 14 7 1 1 1 3 3 4 8 10 10 10 10 9 12 11 8 8 3 4 4 6 16 16 9 5 3 2 2 1 3 5 4 2 4 4 7 9 11 12 12 12 11 11 8 8 7 5 4 5 4 5 5 8 10 6 5 7 5 7 6 6 6 6 6 5 6 7 6 6 6 6 7 9 10 8
28 28 29 30 29 30 29 30 31 24 16 13 11 3 2 5 8 9 6 5 9 11 12 12 11 12 16 17 17 14 7 2 3 3 12 14 7 5 3 3 4 4 5 4 3 2 1 5 11 13 11 10 11 10 8 9 8 7 5 6 4 3 2 2 3 7 9 4 3 6 6 7 5 5 7 6 6 4 4 6 6 6 6 4 6 8 10 9
27 28 30 29 31 31 28 32 28 15 12 17 12 4 8 18 19 16 7 4 9 8 10 12 11 9 13 15 15 15 10 5 5 5 11 12 5 5 4 4 6 5 4 4 5 3 3 7 12 11 9 9 9 10 9 6 5 3 3 4 3 4 3 2 3 7 8 3 2 6 4 4 3 2 3 2 3 2 1 2 3 4 5 5 4 5 8 10
27 29 29 30 32 29 30 32 18 7 17 22 13 9 16 24 21 15 5 2 7 6 7 13 11 7 12 13 9 11 10 7 6 6 12 12 5 4 5 5 5 4 5 7 7 6 8 11 10 7 8 10 9 11 7 1 1 2 2 4 3 7 8 4 4 6 4 1 2 6 3 4 2 3 3 1 1 3 1 1 1 2 2 4 3 3 5 9
28 29 29 32 31 30 33 22 5 11 25 19 10 13 19 20 20 15 4 0 5 6 4 8 7 7 14 12 9 9 7 6 5 7 13 13 9 4 3 4 4 5 8 8 7 6 10 14 10 6 8 9 8 9 6 3 2 5 3 5 5 9 9 5 9 8 3 2 4 5 4 4 4 3 6 2 2 4 1 2 4 3 3 4 5 4 3 6
29 29 30 31 30 33 28 8 7 23 23 10 8 16 18 17 22 16 2 3 4 5 2 3 4 7 11 7 7 6 4 5 6 12 16 15 13 7 3 3 1 5 8 6 4 3 7 13 11 9 8 6 3 4 5 3 3 3 4 5 5 7 5 10 12 8 4 4 5 4 4 2 4 4 7 4 4 6 3 3 6 4 5 5 5 4 2 5
29 28 30 31 30 31 18 6 18 22 9 6 13 18 16 15 20 12 3 4 4 5 3 1 1 6 8 7 9 7 3 4 1 9 15 15 11 5 4 4 2 3 3 1 2 4 6 9 11 10 7 5 2 2 5 4 5 3 7 4 2 4 5 12 13 7 4 3 2 4 4 2 2 5 6 6 6 6 5 6 6 5 5 5 6 5 3 4
30 29 30 30 30 26 14 11 17 12 7 12 16 16 14 15 14 6 4 2 4 3 2 2 1 5 5 6 11 7 3 3 3 4 10 15 9 4 4 7 3 5 3 1 3 7 3 4 8 8 4 4 5 5 6 4 4 6 7 1 3 4 8 11 10 5 2 4 2 5 3 2 3 4 1 5 5 6 8 8 8 7 6 6 7 6 3 4
30 29 29 30 30 21 11 11 13 11 12 14 14 14 13 11 8 4 4 1 3 2 1 1 1 4 2 5 9 7 3 3 3 4 5 9 6 3 4 7 5 5 5 4 5 8 4 5 7 5 3 5 6 6 6 6 4 6 2 4 6 5 7 7 7 5 3 4 3 7 5 2 4 4 1 3 3 6 8 8 8 8 7 7 7 6 4 4
31 30 30 30 28 17 9 14 17 11 8 10 14 15 11 7 5 5 1 2 3 3 1 1 1 4 5 6 5 6 4 1 2 4 4 3 1 2 2 2 3 3 4 3 5 7 6 6 5 3 4 6 5 4 4 7 7 3 3 5 5 3 4 4 2 4 4 1 5 8 6 4 1 4 3 3 4 6 6 5 6 7 7 7 6 5 5 5
32 31 30 29 27 18 9 11 12 6 5 12 17 12 6 4 4 3 3 3 3 2 1 1 3 5 10 10 5 4 4 1 4 7 4 3 1 1 2 2 0 1 4 4 5 6 6 6 4 3 5 5 2 3 4 2 3 3 4 4 4 4 3 4 4 4 4 2 6 6 3 5 2 4 5 5 6 5 6 7 8 9 8 6 5 5 5 4
34 32 29 28 25 18 12 10 10 9 11 15 12 5 4 3 1 2 3 4 2 3 2 2 3 4 10 10 5 6 6 3 5 7 6 5 3 3 4 3 3 0 3 4 4 5 6 6 6 4 4 4 4 1 5 6 4 5 5 5 5 3 4 3 4 3 1 3 5 2 3 3 2 5 5 6 8 6 7 8 9 11 9 8 7 6 5 4
36 33 29 26 21 20 19 17 14 10 8 7 3 4 5 3 3 5 4 3 2 2 2 1 2 3 9 7 4 7 6 4 6 7 6 6 5 4 5 6 7 5 3 4 1 3 5 6 5 3 3 2 6 3 2 3 2 4 5 4 5 3 2 0 3 2 2 4 5 2 3 1 3 4 3 7 8 7 6 7 9 11 10 10 9 7 5 4
37 33 30 26 21 20 19 15 9 5 1 1 3 4 4 3 4 5 6 5 4 3 4 2 3 5 8 7 6 7 4 4 8 8 6 5 4 4 5 5 7 6 4 2 1 2 3 6 4 5 4 3 6 6 6 5 2 3 5 5 5 4 4 3 3 1 3 4 3 3 1 2 2 3 5 6 5 4 4 5 7 8 8 9 8 6 5 4
37 33 28 21 16 11 6 4 5 6 4 3 5 3 4 5 4 2 4 5 2 3 5 5 4 7 8 6 6 8 6 4 7 7 6 6 6 5 5 5 8 7 4 3 3 3 4 6 7 7 7 7 6 5 6 6 1 3 2 6 3 4 5 2 3 4 3 1 1 2 0 2 3 3 4 2 4 4 5 6 7 7 7 8 7 7 6 4
39 33 21 12 10 4 2 7 12 12 7 4 4 2 4 3 3 2 2 3 1 3 6 9 4 5 6 4 5 8 7 4 6 6 4 6 6 7 7 6 9 10 7 5 3 2 3 5 7 5 7 9 9 7 5 5 2 1 2 3 3 4 7 3 2 1 3 3 1 0 1 1 1 2 4 4 6 4 5 6 8 8 8 9 8 8 7 5
38 28 14 9 8 1 4 10 18 14 5 5 4 4 4 3 3 2 3 4 5 4 4 5 3 2 4 6 6 8 7 3 6 6 4 4 4 7 9 6 8 13 12 8 3 3 4 4 7 4 7 7 7 7 5 3 6 4 1 4 2 2 3 4 1 3 3 2 2 1 2 1 1 1 2 3 6 5 5 6 7 8 9 10 9 9 9 7
29 19 11 8 2 5 8 14 19 11 5 4 2 3 3 3 3 3 5 6 6 4 3 3 4 2 1 3 4 5 5 4 6 6 5 5 4 6 10 7 6 13 15 11 4 2 4 2 7 3 7 4 1 5 3 3 1 4 4 4 3 2 1 1 2 1 1 1 1 2 1 2 3 3 4 5 6 6 7 7 7 8 8 8 8 8 8 8
16 8 5 3 4 9 13 18 14 5 4 3 3 3 3 4 5 6 7 6 5 3 3 4 4 1 2 3 2 3 2 3 5 4 3 5 4 6 10 8 6 12 13 11 7 3 3 3 4 4 5 2 3 3 3 4 4 1 3 2 2 3 3 2 3 3 2 2 1 1 2 3 3 5 6 7 7 8 8 7 7 7 7 6 6 6 6 7
6 3 4 2 8 14 18 15 6 4 3 3 4 3 3 4 6 8 8 7 4 3 4 5 4 3 1 3 1 2 0 2 2 2 1 4 4 5 8 8 7 11 11 12 9 3 2 3 2 4 2 4 1 2 6 7 4 2 3 3 2 1 2 1 1 1 3 3 3 3 2 4 5 4 6 7 7 8 8 7 6 5 5 5 4 6 6 6
4 2 2 4 13 16 15 8 1 2 2 3 3 3 5 5 6 10 11 9 6 5 6 7 7 5 2 1 0 2 1 1 2 3 1 4 5 3 6 9 8 7 7 8 7 4 3 3 2 1 1 4 5 7 8 9 8 6 5 5 4 3 3 2 1 3 1 4 4 5 3 5 5 3 6 7 6 7 7 8 6 5 6 5 4 5 6 6
2 2 4 1 6 6 5 3 2 2 2 3 3 4 5 5 7 10 11 10 7 7 7 6 6 4 2 2 3 1 1 1 3 3 2 3 4 4 7 10 10 8 7 6 7 6 4 4 4 1 3 5 8 7 5 8 8 6 3 3 4 4 4 5 3 4 1 2 1 4 2 4 5 2 5 6 6 7 7 8 7 6 6 5 4 4 3 3
2 5 11 9 4 5 1 1 3 2 2 4 4 7 7 6 7 8 9 9 6 5 4 3 2 3 2 2 2 1 0 2 3 3 2 2 2 6 7 5 6 8 7 5 6 4 2 3 3 1 4 4 5 4 2 3 5 4 0 1 3 3 3 5 5 3 1 2 1 4 1 4 5 4 4 5 6 7 6 7 8 6 4 4 4 4 3 2
2 4 8 11 7 3 4 2 3 2 4 5 6 8 8 7 8 10 10 9 7 4 2 2 1 2 3 1 2 2 2 1 2 1 0 1 3 7 7 6 2 6 6 4 4 3 1 1 3 2 2 5 5 3 4 4 3 3 2 2 2 5 5 3 2 3 3 1 3 5 1 5 5 3 3 4 5 6 4 4 6 6 5 4 5 4 3 3
4 2 4 10 9 2 4 2 1 2 4 5 7 9 8 7 8 10 12 12 10 5 2 3 1 1 3 2 1 1 2 3 3 2 1 1 3 6 7 11 8 4 5 9 9 6 2 2 4 5 4 1 2 3 3 1 1 1 1 2 2 2 5 3 2 4 2 1 3 5 4 5 2 2 4 4 5 4 2 2 2 3 4 5 5 4 4 4
2 1 3 6 5 1 1 3 3 3 4 5 6 7 8 7 6 8 10 11 10 7 3 3 1 3 4 4 3 2 2 3 3 2 2 1 2 4 4 9 10 7 3 12 12 7 3 3 4 6 6 5 6 6 5 3 3 1 2 3 4 2 3 5 5 3 3 3 2 3 7 4 3 5 6 4 5 5 3 3 3 3 4 5 5 4 4 4
1 1 2 4 4 3 4 4 5 5 5 5 4 5 8 9 7 7 6 4 5 7 4 1 1 1 2 4 4 3 4 4 3 2 3 3 3 2 3 6 7 9 6 4 5 5 5 3 4 7 5 7 7 7 6 5 4 3 1 2 6 3 4 6 4 4 6 5 1 6 6 9 8 9 8 7 6 6 6 6 6 6 6 6 4 3 4 3
1 1 3 4 2 2 3 4 7 8 9 8 4 4 8 9 7 5 5 5 5 3 2 2 2 5 6 4 2 2 3 5 5 4 4 4 4 4 5 5 4 8 9 6 4 4 6 3 5 6 3 5 5 4 4 5 5 5 4 3 6 4 2 5 5 6 8 6 5 6 7 8 8 8 9 10 9 9 9 8 7 6 6 5 4 4 5 4
2 2 3 5 3 2 4 8 9 9 9 8 4 4 6 8 8 5 3 4 5 3 1 2 4 7 8 7 5 2 1 2 3 4 4 4 6 5 5 5 4 5 7 6 5 3 4 2 5 5 3 4 5 4 4 3 4 3 4 6 5 6 8 6 3 4 6 5 5 8 8 6 6 7 10 10 10 10 8 6 6 6 6 6 6 6 6 6
2 2 3 4 3 4 5 7 7 7 6 5 4 4 5 8 9 8 6 5 5 3 2 4 7 8 7 4 4 3 2 4 4 2 2 2 5 4 3 3 4 6 6 4 4 5 4 3 3 5 3 2 3 2 2 4 6 6 6 7 4 3 5 2 5 7 8 6 7 11 9 3 5 4 4 6 8 8 7 7 7 6 7 6 6 6 6 7
5 6 5 3 3 3 3 4 5 5 4 3 3 5 7 9 11 11 8 6 5 3 4 6 10 9 4 3 7 6 5 7 7 3 1 1 1 1 1 1 2 4 5 3 2 5 4 2 3 4 3 4 3 2 1 2 4 5 6 7 4 1 1 4 5 5 8 8 8 9 8 5 5 2 4 6 9 9 8 8 7 5 6 7 7 7 6 7
9 7 5 3 3 2 3 3 4 4 3 3 6 8 8 9 12 11 6 5 6 5 4 5 7 7 4 6 7 2 5 6 7 5 3 3 2 3 3 4 3 1 2 2 2 2 3 2 3 2 2 5 4 2 1 2 3 2 5 7 5 2 4 4 2 2 7 10 9 7 6 6 5 6 7 7 8 9 8 7 6 7 7 7 7 6 7 8
Wind_Direction
10 8 5 4 3 3 3 2 1 360 360 358 355 352 347 343 338 333 329 325 324 323 322 330 346 351 346 346 335 330 329 317 295 253 237 238 198 178 162 180 183 168 171 181 169 167 182 213 211 148 108 80 335 272 166 234 206 80 73 93 111 142 202 196 186 199 213 255 270 299 348 26 310 304 27 120 140 144 143 133 138 127 117 126 133 144 150 149
9 6 4 4 4 3 3 2 1 1 1 359 357 353 348 344 339 336 332 325 319 316 317 328 350 355 348 347 335 335 332 320 306 261 238 204 171 177 174 170 179 172 173 183 183 175 172 213 195 137 111 286 267 251 211 227 148 102 108 99 149 178 197 199 194 203 207 230 257 291 315 0 307 305 11 103 130 136 131 132 136 120 114 123 134 145 149 149
7 5 4 3 4 4 3 1 1 1 1 2 360 356 352 349 347 343 337 331 323 315 314 330 352 359 355 344 335 339 336 338 312 272 227 179 175 181 184 186 187 183 185 190 191 185 182 203 182 140 149 230 257 230 214 215 164 155 118 119 211 193 191 206 207 204 204 223 234 290 318 336 298 313 13 111 117 128 136 138 137 130 130 136 142 147 149 151
5 4 2 2 3 3 2 0 0 0 2 3 2 359 358 356 355 349 342 339 332 322 320 342 359 2 6 344 335 338 338 22 229 265 178 179 189 186 186 194 197 200 200 195 194 194 202 213 176 152 175 223 260 217 197 206 182 109 128 176 200 175 188 203 207 210 203 228 208 308 331 325 311 355 359 112 112 127 146 143 144 140 140 143 148 150 153 153
4 3 1 360 1 1 1 359 359 359 1 4 4 2 1 2 360 355 352 350 347 342 340 359 5 7 15 350 339 333 348 61 246 239 154 176 190 189 189 195 206 213 205 202 202 198 216 233 179 167 197 216 220 204 227 213 165 76 125 205 159 162 192 183 189 208 196 253 343 11 342 302 321 30 325 122 123 157 151 143 145 142 143 146 152 154 155 155
3 2 360 359 359 358 358 357 357 357 359 3 5 3 2 3 2 360 0 3 4 8 8 19 28 25 15 0 352 343 56 120 267 213 156 163 179 186 186 195 210 212 207 212 220 208 208 206 184 186 206 202 193 203 235 216 130 93 209 53 82 163 173 157 175 199 190 199 168 219 306 310 342 68 225 206 150 161 142 140 142 142 146 147 151 155 157 161
3 2 0 358 357 355 354 355 355 355 356 359 4 4 0 359 2 3 4 12 17 21 24 30 36 38 24 15 356 20 90 248 263 191 166 161 170 180 183 195 204 203 206 214 217 216 198 186 206 195 181 189 195 214 227 197 118 108 179 164 161 146 156 180 177 191 195 193 178 112 353 349 345 0 305 282 185 148 138 138 141 144 146 148 153 157 160 166
3 1 359 357 355 353 352 352 352 353 353 355 360 3 359 355 358 2 3 11 20 28 33 35 36 40 28 28 9 26 56 256 247 193 182 169 171 180 184 188 197 203 205 215 208 189 196 210 223 204 176 185 171 191 190 159 127 163 182 163 160 132 159 207 183 197 216 213 169 34 6 293 261 312 321 290 333 118 140 139 144 146 148 155 162 159 160 165
2 360 358 356 354 352 351 349 349 350 350 351 354 359 359 352 353 358 358 359 12 31 36 42 37 34 18 22 85 31 273 246 193 181 176 172 177 179 182 183 195 203 205 226 223 196 210 209 222 204 170 161 157 178 180 151 197 215 174 149 157 159 159 180 227 225 232 230 117 66 309 262 254 291 293 274 356 89 143 143 149 151 155 164 166 160 158 158
360 358 357 354 353 351 349 348 347 346 346 347 349 354 356 351 348 352 354 351 359 16 24 52 42 32 25 31 84 59 250 170 150 167 168 173 177 178 185 187 194 202 208 234 227 204 219 231 269 226 146 142 168 180 187 171 189 173 142 141 146 149 153 160 220 231 228 243 164 147 211 258 278 270 271 322 33 102 149 147 155 155 159 165 160 158 157 157
359 357 355 353 351 349 347 346 344 344 343 342 344 349 352 349 343 346 352 348 346 3 14 50 33 30 42 74 102 213 229 176 169 166 166 174 181 188 192 192 195 204 215 241 237 220 224 247 287 312 124 153 166 175 207 185 137 138 130 112 95 73 49 171 208 219 193 240 189 166 194 288 330 202 237 51 49 190 162 152 158 157 159 160 157 158 157 159
358 356 354 352 350 347 346 344 342 342 339 338 340 344 348 345 338 338 348 350 349 13 18 35 31 35 59 92 180 227 211 192 193 167 167 176 184 196 195 197 202 210 219 236 259 254 256 280 316 16 133 156 142 161 217 173 112 129 125 104 86 43 336 211 206 204 178 211 187 155 67 316 262 220 232 4 10 180 158 155 156 155 157 157 156 159 160 158
357 354 352 350 348 346 344 342 341 339 337 335 335 341 345 341 333 330 345 356 349 358 24 30 359 18 62 164 237 246 211 206 207 174 173 178 173 182 186 198 210 225 233 236 260 281 290 299 317 343 164 143 150 167 160 117 98 114 100 94 93 35 315 226 188 169 173 208 187 156 123 254 239 238 237 70 19 97 133 160 169 156 155 158 154 157 161 154
356 353 351 348 347 345 343 341 339 337 334 331 332 337 340 338 330 321 337 351 349 22 61 5 309 23 93 255 272 286 264 240 213 190 182 182 182 190 198 206 219 233 242 246 259 279 290 302 324 314 249 148 166 148 120 103 113 136 112 50 100 86 293 249 173 153 165 228 161 127 186 240 238 236 217 136 93 108 133 179 192 161 154 159 156 154 160 156
355 353 350 348 345 343 342 339 338 336 333 329 329 334 336 333 323 310 325 339 349 35 229 347 245 107 41 283 289 296 271 237 201 201 192 184 188 200 211 216 223 228 237 247 258 272 282 305 333 290 269 149 131 130 126 120 250 149 151 230 178 182 276 304 196 168 167 249 109 110 203 257 251 229 195 150 120 120 145 182 181 165 162 162 162 156 158 163
354 352 349 347 345 343 340 338 337 335 331 328 327 331 333 327 313 302 310 303 289 167 133 67 100 107 47 279 300 306 241 206 198 204 200 191 194 210 220 219 223 227 234 240 248 263 276 298 304 222 249 201 132 134 135 128 280 259 202 208 181 185 231 294 238 193 169 141 140 160 191 261 267 224 177 159 139 140 161 174 156 165 167 164 166 162 160 166
352 350 348 346 344 343 340 338 337 333 330 327 327 330 330 320 298 288 303 235 194 194 164 29 356 40 270 271 308 299 233 211 206 203 203 206 212 226 226 214 217 226 234 239 241 253 271 288 253 250 270 174 139 117 116 220 237 253 240 247 217 183 187 177 217 209 175 159 185 194 213 250 271 227 174 170 152 158 174 164 144 154 165 168 169 168 166 166
351 348 346 344 343 343 341 338 337 333 329 326 328 330 328 319 285 258 124 125 130 132 206 285 325 56 271 262 259 251 225 211 212 210 212 215 220 227 226 220 217 210 223 247 240 234 235 270 267 316 330 340 133 122 157 227 206 192 216 239 238 180 184 193 181 189 177 175 191 189 231 255 267 254 198 183 157 164 176 156 154 173 183 175 171 172 171 165
349 347 345 342 341 342 340 339 337 333 328 325 329 333 334 358 51 125 126 120 112 327 292 235 171 140 247 238 232 261 258 220 209 211 212 209 211 221 228 238 226 176 169 261 248 223 174 264 313 326 290 276 237 183 204 226 188 188 209 191 181 179 205 212 178 176 170 165 196 189 213 243 245 234 212 198 166 164 172 155 160 180 177 169 174 177 172 167
347 345 343 341 340 340 340 339 338 333 328 325 332 343 2 39 30 55 119 168 199 236 253 217 187 224 269 272 281 280 262 211 194 189 190 192 191 200 223 236 195 115 171 189 237 239 155 203 260 225 230 242 242 226 224 235 214 204 209 170 183 190 206 218 182 178 162 152 216 206 207 239 235 217 207 191 171 166 171 164 167 175 163 168 177 172 170 173
345 344 343 341 339 339 339 339 336 333 332 331 343 2 108 111 358 324 325 249 227 221 238 232 202 225 253 258 268 275 269 172 194 183 176 180 161 153 223 196 128 308 246 213 236 268 136 193 240 229 225 230 239 239 235 248 242 215 196 166 184 197 210 216 178 172 162 154 225 206 201 249 246 208 201 180 169 188 185 171 170 173 167 175 181 170 168 172
345 343 341 340 339 338 339 337 334 335 343 350 357 12 237 295 303 307 317 285 262 217 220 240 223 235 251 251 252 257 275 208 237 245 175 173 146 148 221 170 162 234 256 241 256 292 193 232 241 235 233 240 253 257 249 247 228 198 163 148 178 203 204 235 165 159 163 172 235 185 187 252 264 198 193 181 171 191 190 171 169 169 162 164 179 173 167 167
345 342 341 341 338 337 338 335 331 333 353 349 334 280 312 328 325 319 309 284 287 234 206 229 226 235 249 255 246 232 247 220 194 233 185 165 149 166 176 163 185 214 239 228 219 224 243 246 241 234 240 251 266 269 259 243 217 184 117 131 197 200 164 195 198 167 167 174 159 155 173 284 315 153 176 184 163 157 107 150 158 177 165 148 175 175 164 171
344 341 340 338 337 337 336 333 330 338 345 336 307 289 332 340 342 336 316 258 294 270 213 216 213 217 233 244 225 198 221 211 172 206 187 161 143 162 167 173 184 218 237 221 207 212 238 249 244 229 235 237 250 268 264 138 345 294 174 162 179 190 194 196 153 140 151 220 122 117 73 319 298 172 192 336 67 128 79 92 101 272 208 143 169 192 165 176
344 341 338 338 339 335 334 334 343 342 336 326 299 315 335 341 345 341 322 75 299 278 233 211 198 220 231 227 203 187 194 205 192 182 177 166 154 149 188 180 159 218 237 232 217 223 245 256 258 244 245 237 233 251 240 120 11 319 252 209 205 198 197 142 113 114 110 256 223 130 81 294 276 222 218 231 128 162 158 174 178 240 237 163 176 200 172 183
343 340 337 338 337 335 338 343 329 332 330 318 318 328 331 338 347 345 12 63 307 268 234 187 159 202 220 201 176 155 133 227 216 165 169 178 173 159 185 204 185 221 226 226 218 225 242 249 251 241 242 238 221 241 227 151 89 331 259 223 240 241 197 137 132 130 146 214 227 164 126 258 279 261 229 199 171 193 213 218 202 206 212 188 184 191 180 194
342 339 336 335 336 340 342 310 319 328 318 307 330 333 332 340 348 352 69 42 301 249 195 225 140 176 196 175 151 127 132 239 199 153 172 183 179 145 169 219 300 244 226 157 230 247 231 240 242 226 219 221 210 253 238 160 121 244 251 197 189 249 175 144 146 150 179 181 197 188 146 119 264 259 225 172 169 208 223 227 226 217 208 199 193 185 185 212
341 338 334 331 333 337 326 298 315 321 300 316 329 335 339 344 348 14 90 36 271 232 157 231 226 170 185 159 151 159 201 161 104 198 184 175 171 104 171 221 234 241 260 84 256 263 232 238 237 210 199 227 219 223 219 150 138 243 255 121 85 145 141 139 151 168 176 119 159 230 178 119 260 278 238 146 166 218 226 220 219 216 209 205 199 185 194 225
340 336 333 328 327 329 322 298 299 301 309 322 334 337 341 345 357 58 89 72 257 267 127 138 175 172 164 140 160 195 220 117 146 209 157 167 181 112 182 214 205 244 260 177 222 266 251 233 224 183 164 226 233 230 196 150 188 253 249 81 61 88 116 119 145 155 102 107 201 233 194 148 274 279 132 133 197 228 227 219 210 206 204 207 201 187 208 224
338 334 332 327 321 323 319 292 292 305 326 336 335 332 336 352 38 73 79 242 265 285 108 86 208 164 147 151 177 207 203 115 126 134 122 188 203 69 209 210 167 242 284 223 232 258 257 258 245 190 181 201 221 254 214 174 196 228 61 76 54 44 82 79 109 113 82 76 242 231 190 138 323 272 211 173 215 213 203 210 202 196 200 204 194 186 214 215
335 333 330 324 315 310 296 286 303 330 337 327 326 326 343 28 70 107 201 249 291 272 153 190 217 161 156 168 186 200 190 127 118 137 164 216 44 29 309 347 53 285 330 312 287 286 297 301 279 234 198 177 144 300 296 251 181 126 74 74 49 0 24 28 360 45 80 258 259 243 179 112 105 262 240 219 239 217 186 196 190 186 192 187 182 201 227 218
335 333 326 319 309 290 260 267 298 299 292 306 318 343 62 69 53 197 231 320 320 213 187 206 223 176 168 173 180 186 178 145 152 162 173 180 175 193 206 201 182 106 317 276 291 321 312 279 259 249 222 164 126 278 314 347 30 90 92 81 74 7 5 11 333 359 132 244 262 245 106 92 230 251 235 217 238 236 200 192 181 179 179 169 180 211 231 223
335 332 325 318 304 278 269 280 287 277 282 297 328 45 83 115 234 215 222 292 242 222 20 51 247 188 164 170 193 194 189 171 171 176 176 172 175 206 228 211 174 157 217 228 296 336 308 288 272 248 257 168 135 155 290 332 17 124 141 119 112 101 66 271 286 333 280 266 284 299 95 82 286 278 233 200 216 223 195 178 172 173 170 166 179 201 217 214
335 332 325 315 300 284 279 281 270 241 243 67 74 67 106 176 241 214 213 243 256 311 351 352 260 211 178 188 196 182 188 201 178 168 169 166 166 211 240 234 196 175 170 177 195 199 245 293 265 201 220 182 154 171 175 171 175 180 166 131 132 145 143 191 200 167 249 268 306 330 63 146 202 251 239 201 193 188 151 146 155 159 159 159 172 187 192 191
335 332 327 316 302 297 280 239 191 157 143 94 68 90 165 208 240 206 218 239 265 312 310 313 263 206 196 214 213 188 184 200 182 163 164 174 181 202 207 217 211 189 143 162 224 203 201 256 249 211 189 168 174 201 172 134 90 274 130 102 138 179 146 154 186 177 197 194 342 331 307 201 203 259 291 130 130 127 119 127 136 143 151 151 166 185 185 183
335 335 335 319 302 313 124 155 154 146 138 98 83 166 205 221 217 195 240 260 343 344 326 331 310 187 186 213 230 215 202 181 167 167 186 190 195 203 200 210 204 189 169 170 214 218 191 269 269 203 174 175 178 190 169 129 134 301 73 127 208 176 129 114 273 274 87 110 253 299 97 320 338 322 339 63 111 123 119 140 151 151 156 158 173 188 189 188
336 336 333 310 304 270 152 153 149 143 114 101 137 212 233 252 230 236 304 321 339 357 3 340 308 206 191 205 223 214 198 165 166 180 198 196 211 208 205 221 200 191 190 179 200 225 175 279 285 189 178 210 192 166 161 150 144 123 135 197 188 64 79 90 103 332 41 127 269 31 132 203 124 244 310 87 118 143 154 165 166 160 164 169 180 189 189 190
332 328 316 303 304 144 156 150 144 135 84 99 198 254 243 254 266 297 315 320 327 341 357 292 254 270 158 188 269 240 186 168 189 194 179 187 235 213 197 213 208 203 201 179 181 243 158 236 291 222 177 228 260 123 126 299 185 130 162 179 108 84 318 54 151 246 40 153 319 11 274 219 172 206 212 161 155 166 172 175 172 172 179 182 185 191 190 184
329 325 324 300 144 141 147 145 138 100 70 123 227 254 245 261 279 285 283 286 290 290 284 239 220 298 46 109 325 287 192 170 204 213 172 184 236 224 198 199 205 216 208 171 168 223 147 147 292 262 175 158 10 77 147 254 282 98 138 156 103 145 170 173 175 165 150 172 147 117 252 250 221 217 195 178 174 168 171 177 175 176 181 185 185 186 188 182
342 334 312 228 148 143 143 141 116 56 93 184 213 229 273 279 280 276 266 263 261 246 256 256 249 278 281 122 128 265 205 106 192 250 249 197 222 240 215 201 200 213 200 171 173 182 114 140 246 284 211 135 139 231 182 188 195 144 171 197 191 127 117 154 197 151 144 149 142 152 220 263 255 218 182 179 180 176 173 164 161 163 162 173 179 170 174 181
340 352 306 125 136 144 140 133 62 87 149 242 226 236 273 274 278 282 274 268 259 240 244 260 266 261 239 114 186 251 286 78 184 222 243 214 217 237 225 208 196 191 171 168 184 175 145 157 153 281 250 165 212 225 189 172 169 165 184 195 173 141 109 119 280 291 141 130 147 152 183 256 264 215 175 176 178 181 168 149 153 170 168 176 193 176 169 175
351 341 278 150 149 173 136 121 247 191 188 245 231 247 268 267 269 276 277 273 263 244 233 242 262 255 209 188 184 184 325 266 214 214 235 234 222 246 243 216 191 167 147 169 202 191 155 131 127 197 225 214 238 239 181 162 162 156 170 189 164 141 120 133 208 266 340 50 104 113 130 252 268 241 176 168 169 171 164 152 156 177 180 179 203 204 186 187
35 296 288 303 270 231 173 316 269 255 230 242 244 250 252 254 262 269 275 274 262 249 229 217 264 270 240 205 163 119 7 244 230 227 262 318 293 281 277 241 196 175 153 165 201 199 146 127 136 249 292 297 299 319 24 109 116 106 88 215 162 160 141 144 173 175 69 350 43 76 52 260 271 264 187 152 154 162 169 164 156 168 189 189 203 209 197 196
310 269 287 324 326 195 175 232 250 244 256 259 260 260 251 245 253 257 263 265 256 256 258 232 243 270 265 265 122 190 204 207 254 270 263 357 312 298 321 356 297 202 170 164 172 160 185 156 118 107 352 340 342 2 359 358 51 108 221 259 148 145 122 97 104 91 57 265 143 108 206 253 265 247 168 133 144 162 176 172 157 165 187 204 214 206 187 182
311 246 251 317 330 181 179 227 241 259 291 303 292 285 275 258 250 246 251 256 249 241 251 244 217 354 287 315 28 250 208 193 228 294 293 223 300 299 338 5 345 268 186 156 134 113 135 139 103 126 152 192 208 202 232 292 52 136 274 335 337 141 124 112 82 78 71 225 120 124 194 253 291 165 164 151 149 163 162 132 164 184 181 199 218 208 192 191
353 349 266 313 338 0 308 337 9 349 325 330 314 298 289 283 279 265 256 251 245 232 212 235 275 27 334 324 350 336 284 232 231 304 309 262 274 282 340 5 347 323 179 150 134 106 107 124 119 137 158 180 191 211 220 161 116 131 351 346 300 303 96 109 102 118 169 144 98 191 184 170 171 178 184 181 166 175 175 162 197 213 192 202 216 216 209 206
71 338 331 345 328 337 357 357 8 354 320 319 310 291 297 299 305 301 282 266 253 238 220 285 343 359 316 327 340 325 317 312 304 308 287 268 256 272 352 12 1 355 6 137 137 101 100 122 151 147 169 200 197 211 206 146 133 174 158 297 283 299 103 126 145 178 157 115 276 243 175 156 187 193 184 185 180 182 185 187 199 202 198 203 203 212 233 248
314 303 7 15 323 335 4 323 322 324 312 314 298 270 297 302 304 315 306 325 341 298 261 344 295 237 232 235 242 265 305 315 318 336 335 325 333 348 351 355 12 16 14 0 348 85 115 162 183 162 179 191 187 238 221 163 161 171 162 230 271 289 203 187 204 187 154 141 208 209 157 165 202 200 186 187 183 181 186 189 192 189 190 194 190 202 220 229
325 314 354 12 343 301 299 290 301 312 311 319 304 267 296 301 302 312 289 309 349 352 305 301 271 252 243 226 208 211 249 293 333 2 355 344 4 16 1 346 344 6 27 19 347 34 94 197 196 154 138 165 181 248 250 188 171 166 192 217 232 265 261 243 206 158 131 121 149 143 136 175 212 203 198 195 179 171 172 169 169 174 179 184 194 202 202 202
5 326 340 352 316 283 281 288 306 313 309 313 287 273 302 311 322 336 321 301 312 319 345 334 311 295 271 222 141 126 128 116 107 48 342 10 27 25 18 356 326 336 14 35 351 14 40 284 240 120 97 266 225 195 211 215 199 193 226 239 227 266 273 210 133 122 102 97 123 126 128 187 241 216 183 165 153 145 148 162 171 178 178 179 194 200 197 202
334 301 315 321 289 294 297 297 315 313 301 299 292 314 328 329 340 345 324 306 323 360 22 353 331 320 306 83 91 116 146 132 132 155 196 135 103 136 167 242 295 326 355 20 7 19 42 316 320 73 84 276 253 123 81 242 201 202 241 250 237 202 173 168 157 135 129 138 136 125 136 191 222 160 103 125 140 144 157 170 172 180 184 184 195 200 200 208
342 321 325 313 262 296 318 301 307 297 286 333 343 339 332 328 342 352 336 324 349 8 21 3 347 343 9 46 50 116 173 144 140 159 172 175 198 200 204 236 234 229 345 13 31 34 77 47 337 78 129 270 263 172 93 51 54 292 251 226 203 139 120 135 122 126 144 145 147 163 185 190 168 136 119 129 144 151 165 174 172 185 196 196 197 191 193 210